Location: Kelshall
(52.0000°N, 0.0500°W)
Time: 03:31:45
(UTC+00:00)

USA 186 - Pass Details

Date: 18 September 2020
Orbit: 261 x 425 km, 96.9° (Epoch: 12 October)

Event Time Altitude Azimuth Distance (km) Brightness Sun altitude
Exits shadow 18:49:23 - 140° (SE) 1,854 4.5 -7.3°
Reaches altitude 10° 18:50:23 10° 134° (SE) 1,456 4.0 -7.4°
Maximum altitude 18:53:12 32° 69° (ENE) 739 2.6 -7.9°
Drops below altitude 10° 18:56:10 10° 4° (N) 1,521 4.7 -8.3°
Sets 18:58:20 0° 355° (N) 2,405 5.9 -8.6°
